{"data":{"norad_id":65413,"intl_designator":"2025-192K","name":"STARLINK-35003","alt_names":[],"object_type":"PAYLOAD","status":"ACTIVE","operator":null,"country":"US","launch_date":"2025-08-31","launch_site_code":"AFETR","launch_vehicle":null,"mission":null,"orbit_class":"UNKNOWN","rcs_meters":null,"size_class":null,"mass_kg":null,"dimensions":null,"purposes":["comms"],"wikipedia_slug":null,"has_3d_model":false,"image_url":null,"decayed_at":null,"tle_current":{"epoch":"2026-05-25T04:47:27.670848Z","epoch_age_seconds":54638,"freshness":"FRESH","line1":"1 65413U 25192K   26145.19962582  .00017904  00000+0  61467-3 0  9995","line2":"2 65413  53.1580 237.2918 0000976  93.6151 266.4961 15.30226545 41093","mean_motion":15.30226545,"eccentricity":9.76e-5,"inclination_deg":53.158,"raan_deg":237.2918,"arg_perigee_deg":93.6151,"mean_anomaly_deg":266.4961,"bstar":0.00061467,"rev_number":4109,"period_min":94.103713251164,"perigee_km":474.4669325534,"apogee_km":475.8046914063,"semimajor_km":6853.2728119798,"source":"CELESTRAK","updated_at":"2026-05-25T13:38:20.801163Z"}}}